ADRAS-J

导读 | 豆包AI

ADRAS-J是日本Astroscale公司开发的试验卫星,由日本宇宙航空研究开发机构选定,于2024年2月18日发射入轨,是日本商业太空碎片清除示范项目的首个任务。 它是全球首个尝试接近大型在轨太空碎片的航天器,目标是2009年遗留的日本火箭上级残骸,将对碎片状态进行摄影评估,验证太空垃圾清理的交会定位技术,为后续轨道碎片清除工程提供关键数据,推动太空可持续发展。

基本信息
目录编号:
58992
目录名称:
ADRAS-J
国际标识:
2024-034A
轨道中心:
EARTH
卫星名称:
ADRAS-J
卫星全名:
--
卫星状态:
在轨 (已飞行754 天)
发射日期:
2024-02-18 UTC
国别 :
日本 (JP)
星等 :
--
轨道信息
数据来源 国际轨道数据
星历时间: 2026-03-13T03:44:30+0800
6小时前
查看轨道信息
半长轴: 6897.068km
偏心率: 0.0086354
轨道倾角: 98.223°
近地点辐角 89.553°
升交点赤经 91.538°
平近点角 271.559°
近地点: 459.372km
远地点: 578.49km
周期: 95.007分钟
每日圈数: 15.15675
详细信息
使用方式:
暂无
2D轨道图
3D轨道图
轨道高度分析图
轨道倾角分析图
轨道综合分析图
查看轨道综合分析图